カタログに戻る

ALSAT 1B

運用中科学SSO
NORAD 41785·PAYLOAD·🇩🇿 Algeria

打ち上げ Sep 26, 2016 から Satish Dhawan Space Centre

Loading…

次のパス (今後24時間)

TLE

最新Source: Space-Track

元期: Sep 14, 2026, 14:38 UTC

1 41785U 16059C   26257.61013744  .00000307  00000-0  56073-4 0  9999
2 41785  97.7783 262.5317 0008177 305.8440  54.2008 14.72331996533736

AllMySatでALSAT 1Bをリアルタイム追跡

Download on the App Store